RH
12 11 10 7 6 6 6 7 8 10 11 11 10 10 11 12 13 10 5 6 8 8 9 9 10 12 12 13 16 18 15 17 16 17 18 17 16 14 12 10 10 10 12 11 11 11 12
10 10 8 6 5 5 6 6 6 6 7 7 10 18 19 17 16 15 15 8 5 6 7 7 7 8 10 16 16 16 16 18 17 18 19 18 15 14 11 10 10 10 14 14 10 10 10
7 6 5 4 4 5 5 5 6 6 8 20 22 21 21 20 19 17 14 16 15 7 6 7 7 7 8 8 11 14 16 17 17 19 19 19 16 14 13 12 12 11 11 17 11 11 10
4 4 4 4 4 4 5 5 6 18 24 24 25 26 25 22 19 16 18 12 14 16 14 10 9 9 9 11 13 13 14 17 18 19 19 20 19 15 14 14 13 12 14 15 13 10 12
4 4 4 4 4 4 5 6 15 23 22 18 19 23 25 24 21 14 12 17 9 9 12 13 13 12 11 10 12 12 13 12 17 18 19 20 18 18 16 14 15 15 18 12 11 12 18
4 4 4 4 4 5 6 8 18 20 17 17 18 21 20 23 17 12 11 11 14 13 10 9 10 12 12 12 12 13 12 12 13 16 20 20 20 18 18 16 14 18 17 16 14 14 17
5 4 4 4 7 13 16 19 24 26 26 25 24 21 17 16 15 15 13 12 13 13 14 16 13 12 10 10 10 10 13 13 13 15 20 22 21 17 14 14 19 28 34 29 12 15 21
6 6 6 13 30 31 28 26 24 19 14 16 18 19 18 16 14 14 14 15 15 12 10 10 9 12 15 15 14 12 13 16 16 19 22 23 19 17 16 18 28 31 38 21 18 16 22
11 10 9 17 22 23 22 18 15 18 20 16 14 15 15 14 13 14 14 14 14 15 14 10 11 18 16 15 15 17 17 18 18 20 25 26 19 18 17 20 21 29 31 18 18 19 25
18 18 19 20 21 18 14 19 20 15 15 16 14 12 12 9 9 11 14 16 16 13 14 13 21 22 18 16 17 19 20 22 20 22 25 25 19 16 17 16 18 21 15 18 20 35 30
24 23 20 16 13 16 22 18 17 18 16 13 12 10 10 10 12 11 11 14 17 16 36 19 19 18 18 17 18 18 19 20 22 26 27 23 22 20 18 14 16 15 19 23 29 38 35
18 16 13 15 23 22 20 18 15 13 12 12 12 10 10 12 13 10 9 11 17 20 18 21 23 22 21 19 20 19 17 18 20 22 26 24 25 22 17 16 17 25 34 38 38 38 67
14 12 24 25 24 21 18 15 14 14 12 8 7 9 12 12 12 11 9 8 16 18 18 28 26 23 19 17 19 19 18 21 28 34 28 26 20 20 20 22 28 38 47 44 59 77 69
15 28 28 26 22 16 16 15 12 8 7 9 10 12 13 15 13 12 10 8 14 16 16 20 22 20 19 18 20 28 32 31 32 36 35 42 30 27 30 30 40 41 42 40 48 77 54
28 29 26 19 18 16 10 6 7 9 11 14 17 18 17 16 14 12 12 9 9 16 18 17 13 13 18 24 24 21 18 23 34 36 47 46 43 33 32 31 28 41 53 43 41 44 58
26 24 20 19 14 10 8 8 10 14 19 21 20 18 16 15 14 14 12 9 13 14 17 23 25 16 16 15 14 15 14 15 21 30 35 46 54 42 33 30 36 42 40 42 49 55 59
23 22 16 10 8 7 8 11 16 21 21 19 18 17 14 14 14 12 11 12 15 18 22 30 25 19 17 20 21 31 25 16 16 24 38 39 39 33 40 40 33 33 37 40 44 44 67
18 12 9 7 6 8 12 19 21 20 21 20 20 15 14 13 11 10 10 12 13 17 19 19 18 20 35 50 52 56 43 45 35 37 37 39 52 50 44 42 41 40 38 41 44 48 47
9 8 6 6 9 14 19 21 21 20 19 16 13 12 10 10 8 8 9 10 11 14 15 15 26 32 43 56 64 53 65 75 76 69 75 78 69 67 50 42 45 44 40 42 49 54 47
7 7 6 9 15 20 23 23 22 18 15 14 14 11 8 8 9 8 6 7 8 14 18 22 54 74 67 72 87 91 80 77 84 94 100 100 94 85 68 54 55 55 49 57 61 60 61
6 6 12 21 24 25 24 21 18 14 12 10 7 4 4 4 3 3 3 5 7 10 21 56 100 100 100 100 97 90 91 81 80 78 85 97 96 93 85 79 78 68 61 51 67 67 64
10 19 25 26 26 25 21 17 14 11 7 5 3 3 3 3 3 3 5 11 18 29 48 61 60 69 83 91 99 96 97 91 85 54 38 33 72 91 91 88 80 75 63 54 63 74 73
23 26 27 26 23 18 14 11 8 6 4 4 3 3 3 3 3 4 9 15 26 44 57 87 86 79 73 82 88 84 83 82 81 59 39 42 40 48 69 84 85 64 74 66 86 94 84
28 28 25 21 16 11 8 5 4 4 4 3 3 2 2 4 5 8 16 29 40 47 56 55 57 70 81 96 98 75 56 43 33 36 44 50 59 77 75 67 84 71 98 97 94 100 99
27 25 18 12 8 6 4 4 4 3 3 2 2 2 3 5 9 20 29 31 42 43 40 40 54 69 66 79 83 81 65 58 48 69 96 96 98 88 73 71 53 78 96 95 96 96 96
22 15 10 7 5 4 4 3 3 2 2 2 2 3 4 12 30 39 44 60 66 63 37 36 39 52 60 57 66 91 84 80 68 63 64 79 96 97 82 73 65 99 92 91 96 96 96
12 8 6 4 4 3 3 3 2 2 2 2 3 4 15 38 52 55 60 66 67 68 63 49 51 49 69 72 87 94 87 79 76 74 70 65 83 97 96 95 97 98 94 79 97 97 96
7 5 4 4 3 3 2 2 2 2 4 4 7 22 41 45 52 63 64 57 66 79 78 82 63 74 71 85 96 93 86 82 96 88 73 72 85 88 86 93 96 87 73 88 95 97 94
5 4 4 3 3 2 2 2 3 4 5 11 35 43 44 36 39 48 59 67 69 68 71 86 72 80 96 96 91 96 97 85 92 88 78 73 80 90 88 84 95 79 99 85 98 94 86
Wind_Speed
3 1 2 3 4 4 5 6 7 8 8 9 10 11 12 13 14 14 13 13 12 11 11 12 11 10 10 10 9 10 9 8 8 8 7 6 5 5 4 4 4 3 5 6 7 8 11
4 3 3 4 5 5 6 6 7 8 8 9 9 12 14 14 14 14 14 13 12 12 11 11 11 10 10 10 8 8 8 8 9 9 9 8 7 7 8 7 7 8 7 8 8 10 12
5 5 5 5 5 6 7 7 7 7 7 9 10 11 13 14 15 15 14 14 14 13 12 11 11 9 12 12 10 9 9 10 11 11 10 11 11 10 9 10 9 11 12 11 10 13 14
5 5 6 6 6 7 7 7 6 6 8 9 10 12 13 16 17 17 16 15 15 15 14 14 14 14 14 7 4 8 9 11 11 13 13 13 13 13 13 12 14 14 15 12 12 13 16
5 6 6 6 7 7 7 7 7 8 10 12 14 15 17 17 19 19 17 16 16 16 16 16 16 16 12 7 10 14 12 12 13 15 15 15 15 16 16 15 15 15 13 15 18 16 15
6 6 7 7 7 7 8 8 10 12 15 17 17 17 18 19 20 18 19 18 17 16 17 15 16 10 12 17 21 17 17 15 16 17 17 18 18 18 18 16 15 11 14 18 21 18 21
6 6 7 7 7 9 10 11 13 14 15 17 18 19 21 21 21 21 20 19 19 19 14 17 17 20 21 21 22 21 18 18 19 19 18 19 19 21 13 18 17 18 20 22 21 22 23
7 7 8 7 9 10 12 14 17 18 18 18 19 20 21 20 19 20 21 20 19 20 22 22 19 21 21 22 22 20 19 18 19 18 18 19 21 16 18 17 17 19 21 25 28 22 24
7 8 9 10 11 13 15 16 17 17 18 18 17 17 20 23 24 25 24 23 23 22 22 24 20 8 5 6 8 9 10 12 14 15 17 21 19 18 18 16 18 22 27 29 28 27 26
8 9 10 12 14 15 15 15 17 16 15 17 19 21 24 25 26 24 24 21 19 19 16 7 6 4 6 8 5 7 10 12 14 15 18 17 16 16 16 17 19 25 24 26 25 19 13
10 11 12 13 13 14 15 15 16 17 19 22 25 25 24 23 20 18 18 16 15 15 4 3 3 3 7 9 11 13 13 13 14 17 20 20 22 21 24 26 26 31 28 26 22 21 23
11 11 12 13 13 14 15 17 19 23 25 25 24 23 20 17 17 17 15 13 12 4 5 3 5 7 8 8 12 16 22 22 21 22 23 28 24 28 31 26 27 28 25 21 22 23 7
12 12 12 12 14 16 19 22 24 24 22 20 19 18 17 16 16 14 14 11 5 5 3 4 8 10 17 22 25 25 24 21 17 17 25 28 32 31 26 27 27 24 21 4 3 2 7
12 12 13 15 17 21 23 22 20 18 17 17 17 17 16 15 14 14 12 9 6 6 9 14 18 22 25 24 20 12 15 19 17 20 25 23 28 12 12 13 17 17 19 10 6 3 4
12 13 15 18 21 20 18 17 17 17 18 18 19 17 16 13 14 12 13 6 5 8 10 14 22 24 8 6 9 18 23 25 16 10 12 9 18 16 11 24 26 12 15 17 10 9 2
13 15 17 18 17 16 16 17 19 19 20 20 19 17 13 12 13 12 11 8 11 14 17 20 21 11 18 23 21 16 16 17 23 22 19 18 18 24 20 19 20 21 15 9 8 3 6
14 17 16 15 16 17 18 18 19 20 21 19 17 16 11 14 14 14 12 11 13 16 16 15 19 25 26 28 26 18 13 20 25 27 24 22 26 37 29 26 27 23 23 20 15 11 4
12 13 14 16 16 17 19 21 22 20 17 17 17 16 14 14 16 15 12 15 15 17 22 23 23 22 22 20 24 17 17 13 18 24 29 27 23 28 32 25 19 18 20 21 16 7 11
11 13 15 16 17 19 20 21 20 19 17 16 16 16 14 15 14 14 12 16 20 24 25 19 19 23 23 25 19 13 11 15 16 16 8 10 8 11 14 18 21 27 28 27 22 18 19
11 14 15 16 18 20 18 17 17 18 18 19 19 16 19 18 9 20 22 22 16 19 21 24 21 21 27 26 19 19 23 21 19 18 19 18 23 24 23 18 20 27 22 17 16 14 17
12 14 17 18 19 18 17 16 16 17 19 20 19 18 19 19 22 22 23 22 24 23 22 19 12 15 23 27 30 26 29 35 31 28 25 20 28 28 35 37 36 40 40 40 31 28 26
13 16 17 18 17 18 18 16 16 18 19 20 21 19 19 21 21 22 21 22 24 24 24 25 21 23 24 26 28 38 36 35 37 39 33 30 30 23 29 27 29 32 33 32 32 31 36
14 16 17 18 18 17 18 19 19 19 20 22 23 23 22 22 22 22 24 22 21 25 19 14 21 30 30 27 25 29 31 34 38 41 38 35 36 30 31 16 15 20 15 12 13 19 23
14 16 17 18 19 19 20 22 23 24 24 24 25 26 23 21 21 20 18 17 18 18 23 26 25 25 25 27 30 33 32 29 24 25 28 38 35 25 19 14 7 10 5 4 12 10 12
14 15 16 17 19 21 23 25 26 27 29 30 31 28 24 21 20 15 13 16 12 15 16 16 15 20 25 25 27 25 25 13 13 13 12 15 23 20 11 18 8 8 6 9 4 6 2
13 15 17 18 20 23 25 27 28 29 32 33 31 30 26 23 15 14 13 12 17 19 18 15 15 19 19 19 22 13 9 16 13 16 24 21 9 19 6 7 6 7 13 10 11 4 9
14 16 18 20 22 23 25 27 29 29 28 28 29 27 25 19 15 12 15 17 16 14 18 19 21 21 19 16 12 7 9 14 11 13 23 23 20 6 13 9 5 13 25 15 6 2 13
15 17 19 21 23 24 26 27 27 25 21 22 24 23 24 20 8 15 14 12 14 12 16 17 23 18 18 18 5 15 12 12 9 12 8 9 11 11 12 8 5 26 32 15 17 16 23
16 18 20 22 24 25 26 25 23 21 21 16 17 19 18 16 15 16 9 6 10 16 19 20 17 17 13 14 17 17 19 12 12 8 4 5 12 12 8 9 20 26 17 26 24 23 24
Wind_Direction
193 240 311 334 343 348 348 343 347 350 350 352 353 354 352 349 346 344 343 343 343 343 340 335 328 322 319 305 286 282 275 282 284 285 282 276 273 270 260 280 278 289 304 307 320 322 335
222 250 289 310 322 332 330 330 331 332 336 342 347 347 345 343 337 332 330 332 333 335 335 336 330 326 322 318 302 288 272 283 282 283 279 273 269 263 266 272 278 294 277 281 310 319 325
241 268 284 297 308 311 314 317 320 325 336 343 343 344 340 336 334 332 326 320 319 320 321 325 327 331 325 307 298 298 283 285 278 279 277 274 271 268 269 276 264 287 290 282 303 317 315
255 269 284 293 298 301 305 309 315 327 329 326 323 321 323 328 328 330 327 320 311 307 306 308 309 312 320 325 332 325 311 293 281 280 278 271 269 271 272 274 277 284 286 283 301 312 311
265 271 277 284 292 301 307 305 306 312 315 315 312 308 308 316 320 321 323 319 313 307 302 301 302 302 300 283 302 305 297 288 278 278 279 274 271 269 270 273 277 278 267 288 306 310 301
265 273 281 291 299 303 303 300 299 301 306 307 307 305 304 307 311 313 315 316 313 310 306 305 297 285 274 285 293 286 286 283 278 274 274 271 266 265 265 264 263 267 269 284 291 306 296
264 273 281 288 294 304 307 306 307 309 308 304 303 303 304 308 310 311 308 309 307 307 302 305 294 290 290 289 282 280 278 279 280 275 273 268 266 266 276 271 267 265 271 280 291 300 287
266 278 281 282 301 310 309 309 308 308 308 309 309 309 309 310 311 310 307 305 304 305 307 302 291 289 282 280 276 273 277 280 280 279 272 271 275 281 264 265 265 270 274 282 291 291 290
274 277 281 285 300 304 304 306 308 308 309 311 312 315 312 311 310 306 304 305 305 304 305 303 301 310 320 309 297 292 284 284 283 280 276 272 278 275 278 269 277 275 276 284 288 290 288
280 289 290 292 296 300 306 308 307 309 311 310 310 310 311 311 310 309 306 304 309 312 304 281 302 332 338 334 313 322 321 314 296 290 282 286 284 275 277 276 282 282 288 288 285 284 280
280 285 286 291 297 303 307 308 308 307 307 307 308 309 310 313 316 320 318 311 309 314 354 281 292 304 320 318 304 307 313 313 308 297 285 276 281 283 282 286 288 284 288 283 275 274 283
277 281 291 297 302 305 305 306 306 308 309 309 309 309 311 313 314 317 323 323 314 309 258 265 272 294 307 319 320 312 311 303 299 291 283 285 279 280 289 288 280 278 278 270 272 269 256
282 287 293 298 300 301 304 308 310 312 312 313 313 313 315 317 319 319 320 316 299 227 281 256 263 280 297 301 302 303 300 291 289 295 293 293 287 289 284 277 273 266 252 276 277 191 235
282 287 289 295 301 307 310 310 312 316 318 318 318 319 319 320 316 313 311 302 241 253 261 277 286 290 294 298 296 291 292 292 288 288 284 287 297 289 281 275 273 274 249 210 236 210 256
280 284 292 301 306 308 312 317 318 319 321 320 319 318 316 312 310 315 311 287 257 272 284 287 296 302 307 257 273 293 297 296 283 274 256 266 270 279 264 292 291 268 234 246 250 285 309
284 292 299 305 307 313 316 317 318 319 320 319 317 314 313 315 319 321 314 293 278 287 290 295 303 281 288 294 298 293 290 279 283 281 276 271 270 277 280 276 267 250 248 237 218 207 247
292 298 305 308 309 310 311 312 315 319 319 318 317 317 321 324 322 320 306 292 291 295 299 302 295 291 290 294 297 293 273 287 282 275 275 274 270 273 270 257 266 257 247 246 245 231 210
292 300 305 303 305 307 313 316 317 320 322 325 322 323 325 323 318 309 306 305 301 293 291 295 292 288 287 291 291 289 282 267 271 277 285 279 272 270 271 272 271 266 263 263 237 228 238
296 297 297 299 305 311 315 317 320 320 323 323 321 320 318 316 308 301 300 297 296 293 292 288 282 289 282 280 286 271 260 265 264 269 277 287 261 285 284 274 256 250 258 261 256 260 244
293 296 298 306 310 312 314 317 321 320 322 322 324 323 321 319 312 305 300 297 285 278 286 289 286 283 280 279 275 270 271 265 267 264 272 280 272 259 259 270 286 284 267 269 281 275 272
294 302 304 309 310 312 313 317 318 321 323 324 327 324 318 305 305 301 301 293 289 287 284 279 276 277 294 300 291 286 272 273 270 278 281 275 269 269 271 272 275 275 275 273 276 265 253
301 302 307 310 312 314 314 316 321 320 320 324 326 325 316 311 309 306 299 294 293 291 296 304 284 281 284 284 290 295 299 299 295 290 282 282 278 272 276 275 279 284 278 275 269 270 267
303 307 309 312 313 315 317 318 319 320 321 322 322 323 322 318 311 305 304 300 296 295 302 281 285 293 298 295 291 288 291 292 290 294 294 277 268 272 271 280 277 288 286 267 251 238 243
307 311 314 313 316 319 319 320 323 323 323 324 323 323 324 318 312 312 303 302 299 303 303 307 307 300 298 298 295 301 305 306 296 286 283 273 262 252 262 272 239 203 150 94 185 155 154
308 308 309 313 316 319 320 321 325 325 327 330 328 327 327 331 330 318 313 305 315 311 315 326 316 308 306 302 310 326 329 330 296 335 339 340 249 232 223 211 205 189 281 320 295 27 89
306 307 310 315 318 319 321 323 326 329 329 330 329 330 337 346 343 337 344 342 335 328 339 345 343 330 311 309 303 290 303 320 331 310 340 355 355 210 227 226 222 353 332 326 278 127 5
307 310 315 317 317 320 322 325 328 329 329 329 329 332 338 4 356 356 334 334 327 333 327 339 346 353 353 352 329 272 285 319 316 330 345 358 10 319 285 276 180 5 347 344 189 342 346
310 313 315 316 319 323 326 327 326 327 330 331 328 332 339 357 346 332 331 323 323 333 325 327 336 334 336 331 296 343 296 337 310 344 345 345 355 353 348 317 244 325 331 1 339 323 313
314 315 317 320 324 326 326 326 326 326 328 330 329 331 335 344 334 323 320 326 326 323 313 309 318 330 313 315 308 326 316 326 315 330 300 332 318 311 300 283 298 308 316 317 307 299 296